This is the latest recevied weather packets stored in our database for station/object AI9F. If no packets are shown the sender has not sent any weather packets the latest 10 day(s).
| Time | Temp. | Humidity | Pressure | Rain* | Wind** | Luminosity | Snow |
|---|---|---|---|---|---|---|---|
| 1778030326 | 8.33° C | 97% | 1009 hPa | 13.72 mm | - | 0 W/m² | - |
| 1778030023 | 8.33° C | 97% | 1009.9 hPa | 12.7 mm | - | 0 W/m² | - |
| 1778029720 | 8.89° C | 97% | 1010.3 hPa | 6.1 mm | - | 0 W/m² | - |
| 1778029419 | 8.89° C | 97% | 1009.7 hPa | 3.05 mm | - | 0 W/m² | - |
| 1778029115 | 8.33° C | 97% | 1009.2 hPa | 6.1 mm | - | 0 W/m² | - |
| 1778028812 | 8.89° C | 96% | 1008.5 hPa | 4.32 mm | - | 0 W/m² | - |
| 1778028507 | 8.89° C | 96% | 1008.7 hPa | 3.05 mm | - | 0 W/m² | - |
| 1778028206 | 8.89° C | 96% | 1008.9 hPa | 7.87 mm | - | 0 W/m² | - |
| 1778027901 | 8.89° C | 96% | 1008.7 hPa | 16.76 mm | - | 0 W/m² | - |
| 1778027598 | 8.89° C | 96% | 1008.9 hPa | 16.76 mm | - | 0 W/m² | - |
| 1778027294 | 8.89° C | 96% | 1008.5 hPa | 8.89 mm | - | 1 W/m² | - |
| 1778026991 | 8.89° C | 96% | 1008.9 hPa | 4.83 mm | - | 1 W/m² | - |
| 1778026686 | 8.89° C | 96% | 1008.6 hPa | 4.83 mm | - | 1 W/m² | - |
| 1778026384 | 8.89° C | 96% | 1008.6 hPa | 4.32 mm | - | 1 W/m² | - |
| 1778026081 | 9.44° C | 96% | 1008.3 hPa | 1.27 mm | - | 4 W/m² | - |
| 1778025779 | 9.44° C | 96% | 1008.9 hPa | 0 mm | - | 2 W/m² | - |
| 1778025475 | 9.44° C | 96% | 1008.5 hPa | 0 mm | - | 3 W/m² | - |
| 1778025173 | 9.44° C | 96% | 1008.5 hPa | 0 mm | - | 7 W/m² | - |
| 1778024869 | 9.44° C | 96% | 1008.7 hPa | 0 mm | - | 5 W/m² | - |
| 1778024567 | 10° C | 96% | 1008.4 hPa | 0 mm | - | 8 W/m² | - |
| 1778024263 | 10° C | 96% | 1008.8 hPa | 1.78 mm | - | 12 W/m² | - |
| 1778023962 | 10° C | 96% | 1008.7 hPa | 1.78 mm | - | 8 W/m² | - |
| 1778023658 | 9.44° C | 96% | 1008.6 hPa | 0 mm | - | 10 W/m² | - |
| 1778023356 | 10° C | 96% | 1008.6 hPa | 0 mm | - | 11 W/m² | - |
| 1778023052 | 10° C | 96% | 1009 hPa | 1.27 mm | - | 15 W/m² | - |
* Rain latest hour (hover to see other rain measurements)
** Current wind speed in m/s (hover to see current wind gust speed)